Regional Weather Roundup
Issued by NWS

Home | Current Version | Previous Version | Graphics & Text | Print | Product List | Glossary On
Versions: 1 2 3 4 5 6 7 8 9 10 11 12 13 14 15 16 17 18 19 20 21 22 23 24 25 26 27 28 29 30 31 32 33 34 35 36 37 38 39 40 41 42 43 44 45 46 47 48 49 50
000
ASUS43 KDTX 280401
RWRMI
MICHIGAN HOURLY REGIONAL WEATHER ROUNDUP
NATIONAL WEATHER SERVICE DETROIT/PONTIAC MI
1200 AM EDT TUE APR 28 2015

NOTE: "FAIR" INDICATES FEW OR NO CLOUDS BELOW 12,000 FEET WITH NO
SIGNIFICANT WEATHER AND/OR OBSTRUCTION TO VISIBILITY.

MIZ047>049-052>055-059>063-066>070-074>076-081>083-280500-
SOUTHEAST LOWER MICHIGAN

CITY           SKY/WX    TMP DP  RH WIND       PRES   REMARKS
ADRIAN         CLEAR     38  32  79 CALM      30.10R
ALMA           CLOUDY    46  34  64 NE8       30.11S
ANN ARBOR      CLEAR     34  31  88 W5        30.09R WCI  30
BAD AXE        CLEAR     35  30  82 CALM      30.10S
CARO           CLEAR     34  31  90 CALM      30.10S
DETROIT CITY   CLEAR     40  33  76 CALM      30.10R
DETROIT        PTCLDY    43  33  68 CALM      30.10R
FLINT          CLOUDY    46  32  58 NE9       30.11R
GROSSE ILE     CLEAR     39  36  87 CALM      30.08S
HILLSDALE      CLEAR     39  34  83 CALM      30.09S
HOWELL         CLOUDY    38  32  77 CALM      30.09R

CITY           SKY/WX    TMP DP  RH WIND       PRES   REMARKS
JACKSON        CLEAR     36  32  85 SW3       30.09S
LAMBERTVILLE   CLEAR     39  34  81 CALM      30.10S
LANSING        MOCLDY    40  33  76 CALM      30.09S
LAPEER         FAIR      34  32  93 CALM      30.10S
MASON          CLEAR     36  32  86 CALM      30.09S
MONROE         CLEAR     37  34  87 CALM      30.07F
PONTIAC        PTCLDY    38  32  79 CALM      30.08R
PORT HOPE        N/A     43  36  76 N13       30.08S
PORT HURON     CLEAR     39  32  75 NW5       30.09F
TRI CITIES     CLOUDY    48  33  56 E6        30.12R
MIDLAND        CLOUDY    45  33  63 CALM      30.11S
TROY           CLEAR     42  34  71 CALM      30.11R
SAGINAW HB     CLOUDY    41  32  70 NE3       30.11R
$$
MIZ043>046-050>051-056>058-064>065-071>073-077>080-280500-
SOUTHWEST LOWER MICHIGAN

CITY           SKY/WX    TMP DP  RH WIND       PRES   REMARKS
BATTLE CREEK   CLEAR     43  34  70 CALM      30.10S
BENTON HARBOR  CLEAR     35  32  88 CALM      30.11R
BIG RAPIDS     CLEAR     41  33  72 CALM      30.10S
COLDWATER      CLEAR     35  32  87 CALM      30.10S
FREMONT        FAIR      44  30  57 NE3       30.10R
HOLLAND        CLEAR     40  34  79 CALM      30.11R
GRAND RAPIDS   PTCLDY    43  34  70 W6        30.09S
IONIA          CLOUDY    46  37  69 SW5       30.08S
KALAMAZOO      CLEAR     41  34  76 CALM      30.10S
LUDINGTON      CLEAR     38  33  82 CALM      30.12S
MARSHALL       CLEAR     35  32  88 CALM      30.09S
MOUNT PLEASANT MOCLDY    44  32  63 E5        30.11S
MUSKEGON       CLEAR     42  34  73 N6        30.10S
SOUTH HAVEN    CLEAR     36  33  88 CALM      30.11R
$$
MIZ016>042-280500-
NORTHERN LOWER MICHIGAN

CITY           SKY/WX    TMP DP  RH WIND       PRES   REMARKS
BEAVER ISLAND  CLOUDY    41  33  73 NW5       30.15F
BELLAIRE       CLOUDY    45  35  68 CALM      30.14S
CADILLAC       CLEAR     37  31  81 CALM      30.10S
CHARLEVOIX     CLOUDY    45  34  65 NE8       30.17S
FRANKFORT      CLEAR     44  32  62 NE5       30.13S
GAYLORD        CLOUDY    44  33  65 N5        30.11S
GRAYLING       CLOUDY    45  33  62 CALM      30.12S
HARBOR SPRINGS CLOUDY    45  33  63 CALM      30.14S
HOUGHTON LAKE  CLOUDY    45  32  60 N7        30.11S
MANISTEE       CLEAR     43  30  61 N3        30.13R
OSCODA         CLOUDY    45  35  67 NW5       30.10S
PELLSTON       CLOUDY    45  34  65 NW3       30.14S
ROGERS CITY    CLOUDY    42  36  76 CALM      30.13S
TRAVERSE CITY  CLOUDY    43  34  70 CALM      30.12S
$$
MIZ007>008-015-280500-
EASTERN UPPER MICHIGAN

CITY           SKY/WX    TMP DP  RH WIND       PRES   REMARKS
KINROSS        CLOUDY    39  36  87 NW5       30.14S
MACKINAC ISLAN CLOUDY    42  33  71 N6        30.14S
NEWBERRY       CLOUDY    38  33  81 N3        30.15S
S. S. MARIE    CLOUDY    42  33  70 W3        30.14R
$$
MIZ004>006-011>014-085-280500-
CENTRAL UPPER MICHIGAN

CITY           SKY/WX    TMP DP  RH WIND       PRES   REMARKS
MANISTIQUE     CLOUDY    39  32  75 N5        30.16S
ESCANABA       CLEAR     39  30  70 N5        30.17S
MENOMINEE      CLEAR     41  30  65 NE6       30.16S
SAWYER-GWINN   CLEAR     33  29  83 CALM      30.16S
$$
MIZ001>003-009>011-084-280500-
WESTERN UPPER MICHIGAN

CITY           SKY/WX    TMP DP  RH WIND       PRES   REMARKS
IRON MOUNTAIN  CLEAR     42  31  64 NE3       30.15R
HOUGHTON       CLEAR     35  29  78 NW3       30.15S
COPPER HARBOR    N/A     35  29  78 W6        30.15S WCI  30
IRONWOOD       CLEAR     39  36  87 CALM      30.14S
$$

ABBREVIATIONS USED IN REMARKS
   TC - TEMPERATURE IN CELSIUS
  WCI - WIND CHILL INDEX
   HX - HEAT INDEX
  VSB - VISIBILITY



USA.gov is the U.S. government's official web portal to all federal, state and local government web resources and services.